Weather History for Red Wing, MN

Change the Weather History Date:

Wednesday, April 24, 2013

  Actual Average Record
Temperature  
Mean Temperature 37 °F -  
Max Temperature 51 °F 61 °F 96 °F (1997)
Min Temperature 23 °F 36 °F 23 °F (2013)
Degree Days  
Heating Degree Days 28    
Moisture  
Dew Point 27 °F    
Average Humidity 69    
Maximum Humidity 93    
Minimum Humidity 37    
Precipitation  
Precipitation 0.09 in - - ()
Sea Level Pressure  
Sea Level Pressure 29.99 in    
Wind  
Wind Speed 5 mph (West)    
Max Wind Speed 22 mph    
Max Gust Speed 33 mph    
Visibility 9 miles    
Events Rain    
Averages and records for this station are not official NWS values.
T = Trace of Precipitation, MM = Missing Value Source: NWS Daily Summary

Daily Weather History Graph

Daily Weather History Graph

Search for Another Location

Airport:

Trip Planner

Search our weather history database for the weather conditions in past years. The results will help you decide how hot, cold, wet, or windy it might be!

Date:

Astronomy

Apr. 24, 2013 Rise Set
Actual Time 6:10 AM CDT 8:06 PM CDT
Civil Twilight 5:39 AM CDT 8:37 PM CDT
Nautical Twilight 5:00 AM CDT 9:16 PM CDT
Astronomical Twilight 4:19 AM CDT 9:58 PM CDT
Moon 7:08 PM CDT (4/24) 5:17 AM CDT (4/24)
Length of Visible Light 14h 58m
Length of Day
13h 55m
Waxing Gibbous, 98% of the Moon is Illuminated
Apr 24
Waxing Gibbous
Apr 25
Full
May 2
Last Quarter
May 9
New
May 17
First Quarter

Hourly Weather History & Observations

Time (CDT) Temp. Windchill Dew Point Humidity Pressure Visibility Wind Dir Wind Speed Gust Speed Precip Events Conditions
12:15 AM 30.2 °F 26.7 °F 23.0 °F 75% 30.06 in 10.0 mi WNW 3.5 mph - N/A   Clear
12:35 AM 28.4 °F 24.6 °F 21.2 °F 74% 30.06 in 10.0 mi West 3.5 mph - N/A   Clear
12:55 AM 28.4 °F 23.3 °F 23.0 °F 80% 30.06 in 10.0 mi West 4.6 mph - N/A   Clear
1:15 AM 28.4 °F 24.6 °F 23.0 °F 80% 30.05 in 10.0 mi WNW 3.5 mph - N/A   Clear
1:35 AM 28.4 °F 24.6 °F 23.0 °F 80% 30.05 in 10.0 mi West 3.5 mph - N/A   Clear
1:55 AM 28.4 °F - 23.0 °F 80% 30.05 in 10.0 mi Calm Calm - N/A   Clear
2:15 AM 28.4 °F - 24.8 °F 86% 30.05 in 10.0 mi Calm Calm - N/A   Clear
2:35 AM 26.6 °F - 24.8 °F 93% 30.05 in 10.0 mi Calm Calm - N/A   Clear
2:55 AM 26.6 °F - 23.0 °F 86% 30.05 in 10.0 mi Calm Calm - N/A   Clear
3:15 AM 26.6 °F 22.6 °F 24.8 °F 93% 30.05 in 10.0 mi WNW 3.5 mph - N/A   Clear
3:35 AM 26.6 °F - 24.8 °F 93% 30.05 in 10.0 mi Calm Calm - N/A   Clear
3:55 AM 24.8 °F - 23.0 °F 93% 30.05 in 10.0 mi Calm Calm - N/A   Clear
4:15 AM 26.6 °F - 23.0 °F 86% 30.05 in 10.0 mi Calm Calm - N/A   Clear
4:35 AM 24.8 °F - 23.0 °F 93% 30.05 in 7.0 mi Calm Calm - N/A   Clear
4:55 AM 24.8 °F - 21.2 °F 86% 30.05 in 5.0 mi Calm Calm - N/A   Clear
5:15 AM 24.8 °F - 23.0 °F 93% 30.05 in 7.0 mi Calm Calm - N/A   Clear
5:35 AM 24.8 °F 20.5 °F 23.0 °F 93% 30.05 in 7.0 mi WNW 3.5 mph - N/A   Clear
5:55 AM 24.8 °F - 23.0 °F 93% 30.04 in 7.0 mi Calm Calm - N/A   Clear
6:15 AM 23.0 °F - 21.2 °F 93% 30.04 in 7.0 mi Calm Calm - N/A   Clear
6:35 AM 24.8 °F - 23.0 °F 93% 30.04 in 5.0 mi Calm Calm - N/A   Clear
6:55 AM 24.8 °F - 23.0 °F 93% 30.04 in 7.0 mi Calm Calm - N/A   Clear
7:15 AM 28.4 °F - 26.6 °F 93% 30.04 in 7.0 mi Calm Calm - N/A   Clear
7:35 AM 30.2 °F - 26.6 °F 86% 30.04 in 7.0 mi Calm Calm - N/A   Clear
7:55 AM 30.2 °F - 26.6 °F 86% 30.04 in 7.0 mi Calm Calm - N/A   Clear
8:15 AM 32.0 °F - 26.6 °F 80% 30.04 in 10.0 mi Calm Calm - N/A   Clear
8:35 AM 33.8 °F - 26.6 °F 75% 30.03 in 10.0 mi Calm Calm - N/A   Clear
8:55 AM 35.6 °F - 26.6 °F 70% 30.03 in 10.0 mi Calm Calm - N/A   Clear
9:15 AM 37.4 °F 32.8 °F 26.6 °F 65% 30.03 in 10.0 mi WSW 5.8 mph - N/A   Clear
9:35 AM 37.4 °F 32.8 °F 26.6 °F 65% 30.02 in 10.0 mi WSW 5.8 mph - N/A   Clear
9:55 AM 39.2 °F 33.6 °F 26.6 °F 61% 30.02 in 10.0 mi WSW 8.1 mph - N/A   Clear
10:15 AM 39.2 °F 33.6 °F 26.6 °F 61% 30.02 in 10.0 mi WSW 8.1 mph - N/A   Clear
10:35 AM 42.8 °F 38.6 °F 26.6 °F 53% 30.02 in 10.0 mi WSW 6.9 mph - N/A   Clear
10:55 AM 42.8 °F 38.0 °F 28.4 °F 57% 30.01 in 10.0 mi WSW 8.1 mph - N/A   Clear
11:15 AM 44.6 °F 39.7 °F 28.4 °F 53% 30.01 in 10.0 mi WSW 9.2 mph - N/A   Clear
11:35 AM 44.6 °F 39.2 °F 28.4 °F 53% 30.01 in 10.0 mi WSW 10.4 mph - N/A   Clear
11:55 AM 44.6 °F 40.2 °F 28.4 °F 53% 30.01 in 10.0 mi SW 8.1 mph - N/A   Clear
12:15 PM 46.4 °F 41.9 °F 28.4 °F 50% 30.00 in 10.0 mi WSW 9.2 mph - N/A   Clear
12:35 PM 46.4 °F 42.9 °F 26.6 °F 46% 29.99 in 10.0 mi SW 6.9 mph - N/A   Clear
12:55 PM 46.4 °F 41.5 °F 28.4 °F 50% 29.98 in 10.0 mi WSW 10.4 mph - N/A   Clear
1:15 PM 48.2 °F - 28.4 °F 46% 29.98 in 10.0 mi WSW 12.7 mph 16.1 mph N/A   Clear
1:35 PM 48.2 °F - 26.6 °F 43% 29.98 in 10.0 mi WSW 13.8 mph 17.3 mph N/A   Clear
1:55 PM 48.2 °F - 26.6 °F 43% 29.98 in 10.0 mi WSW 15.0 mph 19.6 mph N/A   Clear
2:15 PM 48.2 °F - 26.6 °F 43% 29.97 in 10.0 mi WSW 17.3 mph 20.7 mph N/A   Clear
2:35 PM 50.0 °F - 26.6 °F 40% 29.97 in 10.0 mi WSW 17.3 mph 24.2 mph N/A   Clear
2:55 PM 50.0 °F - 24.8 °F 37% 29.96 in 10.0 mi WSW 21.9 mph 27.6 mph N/A   Clear
3:15 PM 51.8 °F - 26.6 °F 38% 29.96 in 10.0 mi West 19.6 mph 25.3 mph N/A   Clear
3:35 PM 51.8 °F - 26.6 °F 38% 29.95 in 10.0 mi WSW 19.6 mph 24.2 mph N/A   Scattered Clouds
3:55 PM 50.0 °F - 26.6 °F 40% 29.95 in 10.0 mi WSW 17.3 mph - N/A   Mostly Cloudy
4:15 PM 50.0 °F - 28.4 °F 43% 29.94 in 10.0 mi West 12.7 mph 17.3 mph N/A   Overcast
4:35 PM 50.0 °F - 26.6 °F 40% 29.93 in 10.0 mi WSW 18.4 mph 26.5 mph N/A   Overcast
4:55 PM 51.8 °F - 26.6 °F 38% 29.92 in 10.0 mi West 18.4 mph 23.0 mph N/A   Mostly Cloudy
5:15 PM 51.8 °F - 28.4 °F 41% 29.92 in 10.0 mi WSW 13.8 mph 21.9 mph N/A   Overcast
5:35 PM 51.8 °F - 26.6 °F 38% 29.92 in 10.0 mi West 15.0 mph 19.6 mph N/A   Overcast
5:55 PM 51.8 °F - 26.6 °F 38% 29.91 in 10.0 mi West 10.4 mph 19.6 mph N/A   Mostly Cloudy
6:15 PM 50.0 °F - 26.6 °F 40% 29.90 in 10.0 mi West 11.5 mph 18.4 mph N/A   Overcast
6:35 PM 48.2 °F - 26.6 °F 43% 29.90 in 10.0 mi West 16.1 mph - N/A   Overcast
6:55 PM 48.2 °F - 24.8 °F 40% 29.89 in 10.0 mi West 12.7 mph - N/A   Overcast
7:15 PM 48.2 °F - 26.6 °F 43% 29.89 in 10.0 mi West 21.9 mph 31.1 mph N/A   Overcast
7:35 PM 41.0 °F 31.6 °F 33.8 °F 76% 29.93 in 7.0 mi West 20.7 mph 33.4 mph N/A Rain Rain
7:55 PM 37.4 °F 33.8 °F 33.8 °F 87% 29.92 in 4.0 mi WNW 4.6 mph - 0.08 in Rain Heavy Rain
8:15 PM 37.4 °F 34.9 °F 35.6 °F 93% 29.92 in 7.0 mi WNW 3.5 mph - N/A Rain Light Rain
8:35 PM 37.4 °F 32.8 °F 35.6 °F 93% 29.93 in 10.0 mi West 5.8 mph - 0.01 in   Drizzle
8:55 PM 37.4 °F 31.4 °F 35.6 °F 93% 29.93 in 7.0 mi NNW 8.1 mph - 0.01 in   Drizzle
9:55 PM 37.4 °F 33.8 °F 35.6 °F 93% 29.96 in 7.0 mi WNW 4.6 mph - N/A   Overcast
10:15 PM 37.4 °F 32.8 °F 35.6 °F 93% 29.97 in 7.0 mi WNW 5.8 mph - N/A   Mostly Cloudy
10:35 PM 37.4 °F 30.3 °F 35.6 °F 93% 29.97 in 10.0 mi West 10.4 mph - N/A   Overcast
10:55 PM 35.6 °F 29.9 °F 33.8 °F 93% 29.97 in 10.0 mi West 6.9 mph - N/A   Scattered Clouds
11:15 PM 37.4 °F 30.8 °F 33.8 °F 87% 29.98 in 10.0 mi West 9.2 mph - N/A   Drizzle
11:35 PM 37.4 °F 31.4 °F 33.8 °F 87% 29.98 in 10.0 mi West 8.1 mph - N/A   Overcast
11:55 PM 37.4 °F 32.1 °F 33.8 °F 87% 29.98 in 10.0 mi West 6.9 mph - N/A   Light Drizzle